Weather History for St. Petersburg, FL

Change the Weather History Date:

Sunday, December 4, 2011

  Actual Average Record
Temperature  
Mean Temperature 68 °F -  
Max Temperature 72 °F 73 °F 86 °F (2013)
Min Temperature 64 °F 56 °F 40 °F (1989)
Cooling Degree Days 3    
Growing Degree Days 18 (Base 50)    
Moisture  
Dew Point 62 °F    
Average Humidity 81    
Maximum Humidity 87    
Minimum Humidity 71    
Precipitation  
Precipitation 0.00 in - - ()
Sea Level Pressure  
Sea Level Pressure 30.20 in    
Wind  
Wind Speed 12 mph (ENE)    
Max Wind Speed 15 mph    
Max Gust Speed -    
Visibility 10 miles    
Events      
Averages and records for this station are not official NWS values.
T = Trace of Precipitation, MM = Missing Value Source: NWS Daily Summary

Daily Weather History Graph

Daily Weather History Graph

Search for Another Location

Airport:

Trip Planner

Search our weather history database for the weather conditions in past years. The results will help you decide how hot, cold, wet, or windy it might be!

Date:

Astronomy

Dec. 04, 2011 Rise Set
Actual Time 7:06 AM EST 5:35 PM EST
Civil Twilight 6:40 AM EST 6:00 PM EST
Nautical Twilight 6:11 AM EST 6:29 PM EST
Astronomical Twilight 5:43 AM EST 6:57 PM EST
Moon 1:45 PM EST (12/4) 1:52 AM EST (12/4)
Length of Visible Light 11h 19m
Length of Day
10h 28m
Waxing Gibbous, 71% of the Moon is Illuminated
Dec 4
Waxing Gibbous
Dec 10
Full
Dec 17
Last Quarter
Dec 24
New
Jan 1
First Quarter

Hourly Weather History & Observations

Time (EST) Temp. Dew Point Humidity Pressure Visibility Wind Dir Wind Speed Gust Speed Precip Events Conditions
12:53 AM 66.0 °F 60.1 °F 81% 30.25 in 10.0 mi East 15.0 mph - N/A   Clear
1:53 AM 64.9 °F 61.0 °F 87% 30.24 in 10.0 mi ENE 12.7 mph - N/A   Clear
2:53 AM 64.9 °F 60.1 °F 84% 30.24 in 10.0 mi ENE 9.2 mph - N/A   Clear
3:53 AM 64.9 °F 60.1 °F 84% 30.23 in 10.0 mi ENE 13.8 mph - N/A   Clear
4:53 AM 64.0 °F 60.1 °F 87% 30.23 in 10.0 mi ENE 13.8 mph - N/A   Clear
5:53 AM 64.0 °F 60.1 °F 87% 30.22 in 10.0 mi East 9.2 mph - N/A   Clear
6:53 AM 64.0 °F 60.1 °F 87% 30.24 in 10.0 mi ENE 10.4 mph - N/A   Clear
7:53 AM 64.0 °F 59.0 °F 84% 30.25 in 10.0 mi ENE 10.4 mph - N/A   Scattered Clouds
8:53 AM 66.0 °F 60.1 °F 81% 30.25 in 10.0 mi ENE 13.8 mph - N/A   Clear
9:53 AM 68.0 °F 62.1 °F 81% 30.26 in 10.0 mi ENE 11.5 mph - N/A   Clear
10:53 AM 70.0 °F 62.1 °F 76% 30.24 in 10.0 mi East 11.5 mph - N/A   Clear
11:53 AM 72.0 °F 62.1 °F 71% 30.22 in 10.0 mi East 11.5 mph - N/A   Clear
12:53 PM 72.0 °F 62.1 °F 71% 30.18 in 10.0 mi East 10.4 mph - N/A   Clear
1:53 PM 72.0 °F 62.1 °F 71% 30.16 in 10.0 mi East 12.7 mph - N/A   Partly Cloudy
2:53 PM 71.1 °F 62.1 °F 73% 30.14 in 10.0 mi East 12.7 mph - N/A   Mostly Cloudy
3:53 PM 71.1 °F 62.1 °F 73% 30.13 in 10.0 mi East 10.4 mph - N/A   Mostly Cloudy
4:53 PM 70.0 °F 63.0 °F 78% 30.14 in 10.0 mi ENE 8.1 mph - N/A   Overcast
5:53 PM 70.0 °F 62.1 °F 76% 30.14 in 10.0 mi East 10.4 mph - N/A   Overcast
6:53 PM 69.1 °F 63.0 °F 81% 30.15 in 10.0 mi ENE 6.9 mph - N/A   Partly Cloudy
7:53 PM 68.0 °F 62.1 °F 81% 30.16 in 10.0 mi East 10.4 mph - N/A   Clear
8:53 PM 68.0 °F 64.0 °F 87% 30.16 in 10.0 mi East 8.1 mph - N/A   Overcast
9:53 PM 68.0 °F 63.0 °F 84% 30.16 in 10.0 mi East 6.9 mph - N/A   Mostly Cloudy
10:53 PM 68.0 °F 63.0 °F 84% 30.16 in 10.0 mi East 8.1 mph - N/A   Clear
11:53 PM 66.9 °F 63.0 °F 87% 30.16 in 10.0 mi ENE 9.2 mph - N/A   Clear